This is the latest recevied weather packets stored in our database for station/object iz1wiy-3. If no packets are shown the sender has not sent any weather packets the latest 1 day(s).
| Time | Temp. | Humidity | Pressure | Rain* | Wind** | Luminosity | Snow |
|---|---|---|---|---|---|---|---|
| 1778088244 | 17.78° C | 76% | 1011 hPa | 0 mm | - | - | - |
| 1778087404 | 17.78° C | 75% | 1010.9 hPa | 0 mm | - | - | - |
| 1778085124 | 17.78° C | 76% | 1010.9 hPa | 0 mm | - | - | - |
| 1778084465 | 17.78° C | 76% | 1010.9 hPa | 0 mm | - | - | - |
| 1778083327 | 18.33° C | 76% | 1010.9 hPa | 0 mm | - | - | - |
| 1778083084 | 18.33° C | 77% | 1010.9 hPa | 0 mm | - | - | - |
| 1778082844 | 18.33° C | 76% | 1010.9 hPa | 0 mm | - | - | - |
| 1778081945 | 18.33° C | 77% | 1010.8 hPa | 0 mm | - | - | - |
| 1778079843 | 18.89° C | 75% | 1010.7 hPa | 0 mm | - | - | - |
| 1778077204 | 19.44° C | 75% | 1010.5 hPa | 0 mm | - | - | - |
| 1778074624 | 18.89° C | 78% | 1010.7 hPa | 0 mm | - | - | - |
| 1778072706 | 18.89° C | 79% | 1010.9 hPa | 0 mm | - | - | - |
| 1778070724 | 19.44° C | 74% | 1010.9 hPa | 0 mm | - | - | - |
| 1778070544 | 19.44° C | 74% | 1010.9 hPa | 0 mm | - | - | - |
| 1778069944 | 19.44° C | 70% | 1010.9 hPa | 0 mm | - | - | - |
| 1778069464 | 19.44° C | 71% | 1010.9 hPa | 0 mm | - | - | - |
| 1778067424 | 18.89° C | 79% | 1010.8 hPa | 0 mm | - | - | - |
| 1778064124 | 18.33° C | 82% | 1010.6 hPa | 0 mm | - | - | - |
| 1778063283 | 18.33° C | 82% | 1010.6 hPa | 0 mm | - | - | - |
| 1778063044 | 18.33° C | 82% | 1010.6 hPa | 0 mm | - | - | - |
| 1778061784 | 18.33° C | 84% | 1010.5 hPa | 0 mm | - | - | - |
| 1778061363 | 18.33° C | 85% | 1010.4 hPa | 0 mm | - | - | - |
| 1778059923 | 17.78° C | 85% | 1010.2 hPa | 0 mm | - | - | - |
| 1778059683 | 18.33° C | 86% | 1010.1 hPa | 0 mm | - | - | - |
| 1778057523 | 17.78° C | 86% | 1009.9 hPa | 0.25 mm | - | - | - |
* Rain latest hour (hover to see other rain measurements)
** Current wind speed in m/s (hover to see current wind gust speed)